« Back
NWS Peachtree City, Ga » Text Product » GA Regional Weather Roundup


Printer-friendly Version
Current Version              Previous Versions:   1  2  3  4  5  6  7  8  9  

Regional Weather Roundup

772
ASUS42 KFFC 230403
RWRGA
WEATHER ROUNDUP FOR GEORGIA
NATIONAL WEATHER SERVICE PEACHTREE CITY GA
1200 AM EDT WED APR 23 2014

NOTE: "FAIR" INDICATES FEW OR NO CLOUDS BELOW 12,000 FEET WITH NO
SIGNIFICANT WEATHER AND/OR OBSTRUCTIONS TO VISIBILITY.

* = USE WITH CAUTION. THE STATIONS MARKED WITH AN ASTERISK MAY NOT
REPORT WEATHER SUCH AS PRECIPITATION, FOG, OR THUNDER AND ARE NOT
QUALITY CONTROLLED BY NWS.

THE REMARK "TC" DENOTES TEMPERATURE READING IN DEGREES CELSIUS.

GAZ001>058-230500-
NORTH GEORGIA

CITY           SKY/WX    TMP DP  RH WIND       PRES   REMARKS
ATLANTA        PTCLDY    62  59  90 W8        29.88F
ATHENS         CLEAR     61  59  93 CALM      29.85S
CHAMBLEE       CLEAR     59  57  93 W5        29.88F
PEACHTREE CITY CLEAR     56  54  93 CALM      29.89F FOG
ROME           FOG       59  58  96 CALM      29.88S VSB 1/2
WEST ATLANTA   CLEAR     59  57  93 CALM      29.88F
GAINESVILLE    CLEAR     60  59  96 W8        29.88S
CARTERSVILLE   CLEAR     58  57  97 CALM      29.89S FOG


CITY           SKY/WX    TMP DP  RH WIND       PRES   REMARKS
DALTON*        MOCLDY    59  59 100 CALM      29.88S FOG
MARIETTA       DRIZZLE   58  58 100 W8        29.88F
$$

GAZ059>098-102>109-230500-
CENTRAL GEORGIA

CITY           SKY/WX    TMP DP  RH WIND       PRES   REMARKS
AUGUSTA-BUSH   CLEAR     62  58  86 SW3       29.82F
AUGUSTA-DANIEL PTCLDY    64  60  87 VRB5      29.83F
COLUMBUS       CLEAR     64  59  83 NW3       29.89S
MACON          FOG       59  59 100 CALM      29.87S VSB 1/4
ROBINS AFB     FOG       61  59  94 CALM      29.87S VSB 1/2


CITY           SKY/WX    TMP DP  RH WIND       PRES   REMARKS
LAGRANGE*      FOG       59  59  99 CALM      29.89F VSB 1/4
SYLVANIA*      MOCLDY    65  63  90 CALM      29.84F FOG
MILLEDGEVILLE* CLEAR     61 N/A N/A CALM      29.86S HAZE
$$

GAZ099>101-110>166-230500-
SOUTH GEORGIA

CITY           SKY/WX    TMP DP  RH WIND       PRES   REMARKS
SAVANNAH       PTCLDY    65  62  90 W5        29.84F
VALDOSTA       CLEAR     64  58  80 CALM      29.89S
ALMA           PTCLDY    63  60  90 CALM      29.87F
ST SIMONS      LGT RAIN  67  60  78 NW5       29.85F
FT STEWART     CLOUDY    63  63 100 W2        29.83F
ALBANY         CLOUDY    65  64  97 CALM      29.91S FOG
HUNTER AFB     PTCLDY    64  63  99 W3        29.82F
MOODY AFB      CLEAR     65  61  87 S5        29.89S
BRUNSWICK      MOCLDY    66  61  82 NW3       29.86F


CITY           SKY/WX    TMP DP  RH WIND       PRES   REMARKS
BAINBRIDGE*    PTCLDY    68  63  83 W3        29.90F
MOULTRIE*      MOCLDY    66  64  94 CALM      29.90S
VIDALIA*       MOCLDY    61  61 100 SW3       29.87S FOG
DOUGLAS*         N/A     64  61  88 CALM      29.89F
$$



USA.gov is the U.S. government's official web portal to all federal, state and local government web resources and services.